Location: Kuffner-Sternwarte
(48.2130°N, 16.2960°E)
Time: 16:12:10
(UTC+02:00)

COROT - Pass Details

Date: 08 May 2026
Orbit: 594 x 855 km, 90.1° (Epoch: 21 May)

Event Time Altitude Azimuth Distance (km) Brightness Sun altitude
Rises 00:49:41 0° 356° (N) 3,417 10.8 -24.8°
Reaches altitude 10° 00:52:13 10° 350° (N) 2,457 9.6 -24.8°
Maximum altitude 00:57:24 44° 281° (W) 1,115 6.8 -24.7°
Enters shadow 00:58:25 39° 252° (WSW) 1,183 6.7 -24.7°
